Location: 22
(39.7117°N, 89.5929°W)
Time: 16:01:01
(UTC-05:00)

Tiros 1 despin weight - Pass Details

Date: 14 August 2024
Orbit: 573 x 617 km, 48.2° (Epoch: 17 September)

Event Time Altitude Azimuth Distance (km) Brightness Sun altitude
Rises 20:14:37 0° 299° (WNW) 2,797 ? -4.4°
Reaches altitude 10° 20:17:06 10° 310° (NW) 1,890 ? -4.8°
Maximum altitude 20:21:00 32° 14° (NNE) 995 ? -5.5°
Drops below altitude 10° 20:24:52 10° 79° (ENE) 1,875 ? -6.2°
Enters shadow 20:26:07 - 85° (E) 2,327 ? -6.4°
